Regional Weather Roundup
Issued by NWS

Home | Current Version | Previous Version | Text Only | Print | Product List | Glossary Off
Versions: 1 2 3 4 5 6 7 8 9 10 11 12 13 14 15 16 17 18 19 20 21 22 23 24 25 26 27 28 29 30 31 32 33 34 35 36 37 38 39 40 41 42 43 44 45 46 47 48 49 50

599
ASUS44 KJAN 270910
RWRMS

MISSISSIPPI HOURLY WEATHER ROUNDUP
NATIONAL WEATHER SERVICE JACKSON MS
400 AM CDT FRI MAR 27 2015

NOTE: "FAIR: INDICATES FEW OR NO CLOUDS BELOW 12,000 FEET WITH NO
SIGNIFICANT WEATHER AND/OR OBSTRUCTIONS TO VISIBILITY.

MSZ001>002-007>008-010>013-018>021-025>028-034>036-271000-
NORTHWEST MISSISSIPPI

CITY           SKY/WX    TMP DP  RH WIND       PRES   REMARKS
CLARKSDALE       N/A     39  39 100 NW5       30.05S
CLEVELAND      FAIR      40  40 100 N3        30.04S
GREENWOOD      CLEAR     39  34  82 NE3       30.02F
GREENVILLE     CLEAR     41  37  86 CALM      30.04S
OLIVE BRANCH   CLEAR     32  32 100 NW5       30.03R WCI  27
OXFORD         FAIR      36  32  87 CALM      30.02S
TUNICA         SUNNY     36  34  93 NW7       30.06R WCI  30
$$

MSZ003>006-009-014>017-022>024-029>033-037>039-271000-
NORTHEAST MISSISSIPPI

CITY           SKY/WX    TMP DP  RH WIND       PRES   REMARKS
COLUMBUS AFB   CLOUDY    45  38  75 N15       29.97S
CORINTH        FAIR      37  36  93 NW5       29.98S WCI  34
GOLDN TRIANGLE CLOUDY    46  37  71 N12       29.97S
STARKVILLE     CLOUDY    45  37  76 N7        29.98F
TUPELO         CLEAR     37  33  85 NE6       29.98F WCI  32
$$

MSZ040-058-271000-
CENTRAL MISSISSIPPI

CITY           SKY/WX    TMP DP  RH WIND       PRES   REMARKS
JACKSON INTL   MOCLDY    48  42  80 NW8       30.00F
JACKSON HAWKNS CLEAR     45  40  82 NW6       30.01F
MERIDIAN KEY   CLOUDY    47  42  83 N16       29.96S
MERIDIAN NAS   NOT AVBL
RAYMOND        FAIR      45  39  81 NW3       30.01F
VICKSBURG      CLEAR     42  37  82 NW3       30.04F
$$

MSZ059>079-271000-
SOUTH MISSISSIPPI

CITY           SKY/WX    TMP DP  RH WIND       PRES   REMARKS
BROOKHAVEN     PTSUNNY   48  45  87 N7        30.02S
HATTIESBURG    CLOUDY    51  45  79 N12G23    29.96S
MCCOMB         CLOUDY    50  43  77 N14G22    29.99S
NATCHEZ        CLEAR     46  37  71 N7        30.03F
PINE BELT      CLOUDY    48  41  76 N13       29.97R
$$

MSZ080>082-271000-
COASTAL MISSISSIPPI

CITY           SKY/WX    TMP DP  RH WIND       PRES   REMARKS
BILOXI         CLOUDY    57  53  85 N17G24    29.88S
PASCAGOULA     MOCLDY    56  52  86 N10G22    29.88S
GULFPORT       CLOUDY    56  50  80 NW15      29.90R
$$



USA.gov is the U.S. government's official web portal to all federal, state and local government web resources and services.